Weather History for Sharm El Sheikh, Egypt

Change the Weather History Date:

Saturday, January 19, 2013

  Actual Average Record
Temperature  
Mean Temperature 73 °F -  
Max Temperature 82 °F - - ()
Min Temperature 64 °F - - ()
Cooling Degree Days 8    
Growing Degree Days 23 (Base 50)    
Moisture  
Dew Point 54 °F    
Average Humidity 56    
Maximum Humidity 73    
Minimum Humidity 36    
Precipitation  
Precipitation 0.00 in - - ()
Sea Level Pressure  
Sea Level Pressure 29.98 in    
Wind  
Wind Speed 5 mph ()    
Max Wind Speed 8 mph    
Max Gust Speed -    
Visibility 5.0 miles    
Events      
T = Trace of Precipitation, MM = Missing Value Source: Averaged Metar Reports

Daily Weather History Graph

Daily Weather History Graph

Search for Another Location

Airport:

Trip Planner

Search our weather history database for the weather conditions in past years. The results will help you decide how hot, cold, wet, or windy it might be!

Date:

Astronomy

Jan. 19, 2013 Rise Set
Actual Time 6:34 AM EET 5:12 PM EET
Civil Twilight 6:09 AM EET 5:37 PM EET
Nautical Twilight 5:40 AM EET 6:05 PM EET
Astronomical Twilight 5:12 AM EET 6:34 PM EET
Moon 11:19 AM EET (1/19) No Moon Set
Length of Visible Light 11h 28m
Length of Day
10h 37m
First Quarter, 54% of the Moon is Illuminated
Jan 19
First Quarter
Jan 27
Full
Feb 3
Last Quarter
Feb 10
New
Feb 17
First Quarter

Hourly Weather History & Observations

Time (EET) Temp. Heat Index Dew Point Humidity Pressure Visibility Wind Dir Wind Speed Gust Speed Precip Events Conditions
12:00 AM 66.2 °F - 39.2 °F 37% 29.95 in 5.0 mi North 5.8 mph - N/A   Unknown
1:00 AM 66.2 °F - 57.2 °F 73% 29.92 in 5.0 mi NNW 4.6 mph - N/A   Unknown
2:00 AM 66.2 °F - 55.4 °F 68% 29.92 in 5.0 mi NNW 6.9 mph - N/A   Unknown
3:00 AM 66.2 °F - 55.4 °F 68% 29.92 in 5.0 mi NNW 6.9 mph - N/A   Unknown
4:00 AM 64.4 °F - 55.4 °F 73% 29.92 in 5.0 mi NNW 5.8 mph - N/A   Unknown
5:00 AM 64.4 °F - 53.6 °F 68% 29.92 in 5.0 mi North 5.8 mph - N/A   Unknown
6:00 AM 64.4 °F - 53.6 °F 68% 29.95 in 5.0 mi North 6.9 mph - N/A   Unknown
7:00 AM 64.4 °F - 53.6 °F 68% 29.95 in 5.0 mi North 6.9 mph - N/A   Unknown
8:00 AM 66.2 °F - 53.6 °F 64% 29.98 in 5.0 mi North 4.6 mph - N/A   Unknown
9:00 AM 73.4 °F - 57.2 °F 57% 30.01 in - North 8.1 mph - N/A   Clear
9:48 AM 73.4 °F - 57.2 °F 57% 30.01 in - North 8.1 mph - N/A   Clear
10:00 AM 77.0 °F - 55.4 °F 47% 30.01 in - NNE 6.9 mph - N/A   Clear
11:00 AM 80.6 °F 80.5 °F 55.4 °F 42% 30.01 in - NE 6.9 mph - N/A   Clear
12:00 PM 82.4 °F 81.4 °F 53.6 °F 37% 29.98 in - ENE 5.8 mph - N/A   Clear
1:00 PM 82.4 °F 81.4 °F 53.6 °F 37% 29.98 in - East 5.8 mph - N/A   Clear
2:00 PM 82.4 °F 81.4 °F 53.6 °F 37% 29.95 in - SE 5.8 mph - N/A   Clear
3:00 PM 80.6 °F 80.5 °F 55.4 °F 42% 29.95 in - ESE 6.9 mph - N/A   Clear
4:00 PM 78.8 °F - 50.0 °F 36% 29.98 in - East 5.8 mph - N/A   Clear
5:00 PM 73.4 °F - 55.4 °F 53% 29.98 in - NNE 6.9 mph - N/A   Clear
6:00 PM 69.8 °F - 55.4 °F 60% 30.01 in - North 5.8 mph - N/A   Clear
7:00 PM 68.0 °F - 53.6 °F 60% 30.01 in - North 5.8 mph - N/A   Clear
8:00 PM 66.2 °F - 53.6 °F 64% 30.04 in - North 5.8 mph - N/A   Clear
9:00 PM 66.2 °F - 53.6 °F 64% 30.04 in - North 5.8 mph - N/A   Clear
10:00 PM 66.2 °F - 55.4 °F 68% 30.06 in - NNW 4.6 mph - N/A   Clear
11:00 PM 66.2 °F - 53.6 °F 64% 30.04 in - North 5.8 mph - N/A   Clear